Weather in Tarsus

Turkey     36°54′59″N   34°53′44″E
temp.,
°C
wind,
m/s
gust,
m/s
humid.,
%
clouds,
%
prec.,
mm/h
press.,
hPa
HPBL,
m
18 april, sun
sun1800:00+20nne1150100 0.0 101711
03:00+20ne1150100 0.0 101611
06:00+18nne2252100 0.0 101613
09:00+24n2241100 0.0 1018212
12:00+29ene2230100 0.0 1017785
15:00+31sse2227100 0.0 10151443
18:00+27sw354799 0.0 1015108
21:00+23nnw11488 0.0 101611
19 april, mon
mon1900:00+22nne225115 0.0 101511
03:00+21nne3350100 0.0 101518
06:00+22nne2245100 0.0 101418
09:00+26nne3440100 0.0 1014205
12:00+30ne3329100 0.0 1013593
15:00+32ene3323100 0.0 1011998
18:00+29ne3338100 0.0 100929
21:00+25n2239100 0.0 100913
20 april, tue
tue2000:00+23n2235100 0.0 100811
03:00+22nne2235100 0.0 100711
06:00+21n334417 0.0 100622
09:00+25ese114574 0.0 1008286
12:00+28sse4439100 0.0 10081068
15:00+22ssw6747100 0.0 1010571
18:00+19s4466100 0.0 1012633
21:00+17e227970 0.0 101484
21 april, wed
wed2100:00+14ne238813 0.0 101439
03:00+13nne34892 0.0 101589
06:00+12nne47880 0.0 1015149
09:00+18ne45621 0.0 1016921
12:00+22ne32465 0.0 10161564
15:00+22ssw644914 0.0 10151214
18:00+20ssw43590 0.0 1016690
21:00+15wsw22845 0.0 101820
22 april, thu
thu2200:00+14ne008921 0.0 101811
03:00+15ne228398 0.0 101890
06:00+15nne228292 0.0 1019102
09:00+18e116940 0.0 1019618
12:00+22sse21510 0.0 10181171
15:00+23ssw64540 0.0 10171049
18:00+20ssw44623 0.0 1017595
21:00+15ssw118437 0.0 101810